Change the Weather History Date:

Saturday, June 9, 2012

  Actual Average Record
Temperature  
Mean Temperature 75 °F 70 °F  
Max Temperature 87 °F 81 °F 98 °F (1911)
Min Temperature 62 °F 59 °F 41 °F (1913)
Degree Days  
Heating Degree Days 0 1  
Month to date heating degree days 11 12  
Since 1 June heating degree days 11 12  
Since 1 July heating degree days 5046 6196  
Cooling Degree Days 10 6  
Month to date cooling degree days 22 43  
Year to date cooling degree days 171 119  
Since 1 June cooling degree days 22 43  
Growing Degree Days 24 (Base 50)    
Moisture  
Dew Point 54 °F    
Average Humidity 50    
Maximum Humidity 67    
Minimum Humidity 32    
Precipitation  
Precipitation 0.00 in 0.15 in 3.98 in (1905)
Month to date precipitation 0.24 1.35  
Year to date precipitation 13.40 15.21  
Snow  
Snow 0.00 in 0.00 in - ()
Month to date snowfall 0.0 0.0  
Since 1 June snowfall 0.0 0.0  
Since 1 July snowfall 16.9 31.6  
Snow Depth 0.00 in    
Sea Level Pressure  
Sea Level Pressure 29.87 in    
Wind  
Wind Speed 8 mph (South)    
Max Wind Speed 18 mph    
Max Gust Speed 24 mph    
Visibility 10 miles    
Events      
T = Trace of Precipitation, MM = Missing Value Source: NWS Daily Summary

Daily Weather History Graph

Daily Weather History Graph

Search for Another Location

Airport or City:

Trip Planner

Search our weather history database for the weather conditions in past years. The results will help you decide how hot, cold, wet, or windy it might be!

Date:

Astronomy

Jun. 09, 2012 Rise Set
Actual Time 5:28 AM CDT 8:34 PM CDT
Civil Twilight 4:54 AM CDT 9:08 PM CDT
Nautical Twilight 4:11 AM CDT 9:51 PM CDT
Astronomical Twilight 3:20 AM CDT 10:43 PM CDT
Moon No Moon Rise 11:17 AM CDT (6/9)
Length of Visible Light 16h 14m
Length of Day
15h 06m
Waning Gibbous, 68% of the Moon is Illuminated
Jun 9
Waning Gibbous
Jun 11
Last Quarter
Jun 19
New
Jun 26
First Quarter
Jul 3
Full

Hourly Weather History & Observations

Time (CDT) Temp. Heat Index Dew Point Humidity Pressure Visibility Wind Dir Wind Speed Gust Speed Precip Events Conditions
12:52 AM 69.1 °F - 51.1 °F 53% 29.91 in 10.0 mi SSW 8.1 mph - N/A   Clear
1:52 AM 68.0 °F - 50.0 °F 52% 29.91 in 10.0 mi SSW 9.2 mph - N/A   Clear
2:52 AM 66.2 °F - 50.0 °F 56% 29.90 in 10.0 mi SSW 9.2 mph - N/A   Clear
3:52 AM 66.0 °F - 50.0 °F 56% 29.89 in 10.0 mi SSW 6.9 mph - N/A   Clear
4:52 AM 64.0 °F - 50.0 °F 60% 29.90 in 10.0 mi SSW 4.6 mph - N/A   Clear
5:52 AM 62.1 °F - 52.0 °F 70% 29.91 in 10.0 mi Calm Calm - N/A   Clear
6:52 AM 66.0 °F - 54.0 °F 65% 29.92 in 10.0 mi Calm Calm - N/A   Clear
7:52 AM 70.0 °F - 54.0 °F 57% 29.93 in 10.0 mi SW 3.5 mph - N/A   Clear
8:52 AM 75.0 °F - 55.0 °F 50% 29.92 in 10.0 mi SW 4.6 mph - N/A   Clear
9:52 AM 77.0 °F - 57.0 °F 50% 29.92 in 10.0 mi South 8.1 mph - N/A   Clear
10:52 AM 81.0 °F 81.0 °F 57.0 °F 44% 29.91 in 10.0 mi SW 11.5 mph - N/A   Clear
11:52 AM 82.9 °F 82.0 °F 55.0 °F 38% 29.88 in 10.0 mi SW 9.2 mph - N/A   Clear
12:52 PM 84.0 °F 82.9 °F 55.0 °F 37% 29.87 in 10.0 mi SSW 9.2 mph - N/A   Clear
1:52 PM 84.9 °F 83.7 °F 55.9 °F 37% 29.85 in 10.0 mi South 8.1 mph 17.3 mph N/A   Clear
2:52 PM 86.0 °F 84.2 °F 54.0 °F 33% 29.83 in 10.0 mi SSE 13.8 mph 19.6 mph N/A   Clear
3:52 PM 86.0 °F 84.5 °F 55.0 °F 35% 29.82 in 10.0 mi SSW 9.2 mph 18.4 mph N/A   Clear
4:52 PM 86.0 °F 84.5 °F 55.0 °F 35% 29.82 in 10.0 mi South 10.4 mph 19.6 mph N/A   Clear
5:52 PM 84.9 °F 83.6 °F 55.0 °F 36% 29.81 in 10.0 mi South 10.4 mph - N/A   Clear
6:52 PM 82.9 °F 82.1 °F 55.9 °F 39% 29.80 in 10.0 mi South 9.2 mph - N/A   Clear
7:52 PM 80.1 °F 80.4 °F 57.0 °F 45% 29.80 in 10.0 mi SSE 8.1 mph - N/A   Clear
8:52 PM 75.0 °F - 55.9 °F 51% 29.81 in 10.0 mi SSE 6.9 mph - N/A   Clear
9:52 PM 73.0 °F - 57.0 °F 57% 29.82 in 10.0 mi SSE 6.9 mph - N/A   Clear
10:52 PM 71.6 °F - 57.2 °F 60% 29.84 in 10.0 mi SSE 6.9 mph - N/A   Clear
11:52 PM 72.0 °F - 57.0 °F 59% 29.83 in 10.0 mi SSE 8.1 mph - N/A   Clear